Powrót do katalogu

STARLINK-4183

AktywnyŁącznośćVLEO
NORAD 53014·PAYLOAD·🇺🇸 United States

Wystrzelony Jul 7, 2022 z Cape Canaveral Space Force Station

Loading…

Następne Przeloty (najbliższe 24 godziny)

TLE

ŚwieżeSource: CelesTrak SupGP

Epoka: Sep 14, 2026, 21:53 UTC

1 53014C 22076AE  26257.91229167 -.00002703  00000+0 -77351-4 0  2576
2 53014  53.1588 304.6277 0001247  85.9301 186.9766 15.35393560    18

Śledź STARLINK-4183 w czasie rzeczywistym z AllMySat

Download on the App Store